Flag for New Zealand Weather past 2 weeks in Wellington, New Zealand

Now
52 °F

Passing clouds.


Feels Like: 46 °F
Forecast: 48 / 54 °F
Wind: 17 mph from North

Location: Wellington Airport

Current Time: Sep 4, 2015 at 3:23:47 AM

Latest Report: Sep 4, 2015 at 3:00 AM


Visibility: N/A

Pressure: 29.65 "Hg

Humidity: 88%

Dew point: 48 °F

Location of WellingtonLocation

Historic Weather in Wellington — Graph

°F

Wellington temperature yesterday

Maximum temperature yesterday: 54 °F (at 12:00 AM)
Minimum temperature yesterday: 48 °F (at 9:30 PM)
Average temperature yesterday: 51 °F

Past Weeks' High & Low Weather Summary

 TemperatureHumidityPressure
High61 °F (Aug 30, 12:00 PM)100% (Aug 25, 12:00 PM)30.57 "Hg (Aug 25, 12:00 PM)
Low37 °F (Aug 22, 3:00 AM)47% (Aug 27, 12:00 PM)29.39 "Hg (Sep 2, 11:00 PM)
Average51 °F78%30.11 "Hg
* Reported Aug 20 2:00 AM — Sep 4 2:00 AM, Wellington, Weather by CustomWeather, © 2015

Note: Actual official high and low records may vary slightly from our data, if they occured in-between our weather recording intervals... More about our weather records

Advertising

Wellington weather history for previous 24 hours

 ConditionsComfort  
Time TempWeatherWind HumidityBarometerVisibility
2:00 AM
Fri, Sep 4
50 °FPassing clouds.20 mph88%29.68 "HgN/A
1:30 AM50 °FPassing clouds.16 mph88%29.68 "HgN/A
1:00 AM50 °FOvercast.14 mph82%29.68 "HgN/A
12:30 AM50 °FOvercast.14 mph82%29.71 "HgN/A
12:00 AM50 °FPassing clouds.12 mph82%29.74 "HgN/A
11:30 PM
Thu, Sep 3
48 °FPassing clouds.14 mph82%29.74 "HgN/A
11:00 PM48 °FOvercast.12 mph82%29.74 "HgN/A
10:30 PM48 °FOvercast.9 mph82%29.74 "HgN/A
10:00 PM48 °FOvercast.8 mph82%29.74 "HgN/A
9:30 PM48 °FOvercast.6 mph82%29.74 "HgN/A
9:00 PM50 °FOvercast.6 mph76%29.74 "HgN/A
8:30 PM50 °FOvercast.3 mph76%29.77 "HgN/A
8:00 PM50 °FPassing clouds.5 mph76%29.77 "HgN/A
7:30 PM50 °FOvercast.7 mph76%29.74 "HgN/A
7:00 PM50 °FPassing clouds.12 mph76%29.74 "HgN/A
6:30 PM50 °FPassing clouds.13 mph76%29.74 "HgN/A
6:00 PM50 °FPassing clouds.15 mph76%29.71 "HgN/A
5:30 PM50 °FPassing clouds.17 mph71%29.71 "HgN/A
5:00 PM50 °FPassing clouds.20 mph76%29.71 "HgN/A
4:30 PM52 °FScattered clouds.22 mph67%29.68 "HgN/A
4:00 PM52 °FPartly sunny.23 mph72%29.68 "HgN/A
3:30 PM52 °FScattered showers. Overcast.24 mph72%29.68 "HgN/A
3:00 PM52 °FOvercast.24 mph72%29.68 "HgN/A
2:30 PM52 °FSprinkles. Mostly cloudy.25 mph72%29.65 "Hg5 mi
2:00 PM52 °FOvercast.28 mph77%29.65 "Hg6 mi
1:30 PM52 °FSprinkles. Partly sunny.28 mph77%29.65 "Hg6 mi
1:00 PM52 °FSprinkles. Cloudy.28 mph77%29.62 "Hg6 mi
12:30 PM50 °FDrizzle. Mostly cloudy.29 mph82%29.62 "Hg5 mi
12:00 PM52 °FBroken clouds.28 mph82%29.62 "Hg6 mi
11:30 AM52 °FPartly sunny.26 mph77%29.62 "Hg6 mi
11:00 AM50 °FSprinkles. Partly sunny.29 mph82%29.59 "HgN/A
10:30 AM50 °FOvercast.30 mph82%29.59 "HgN/A
9:30 AM50 °FDrizzle. Partly sunny.28 mph88%29.56 "Hg6 mi
9:00 AM52 °FSprinkles. More clouds than sun.28 mph82%29.56 "HgN/A
8:30 AM52 °FLight rain. Mostly cloudy.25 mph82%29.53 "HgN/A
8:00 AM50 °FLight rain. Partly sunny.28 mph88%29.53 "Hg4 mi
7:30 AM50 °FLight rain. Partly sunny.26 mph88%29.50 "Hg5 mi
7:00 AM50 °FSprinkles. Mostly cloudy.28 mph88%29.50 "HgN/A
6:30 AM52 °FDrizzle. Mostly cloudy.23 mph82%29.47 "HgN/A
6:00 AM52 °FLight rain. Partly sunny.22 mph88%29.47 "HgN/A
5:30 AM52 °FLight rain. Overcast.22 mph82%29.45 "HgN/A
5:00 AM52 °FLight rain. Mostly cloudy.22 mph88%29.45 "Hg5 mi
4:30 AM52 °FRain. Overcast.16 mph94%29.45 "Hg3 mi
3:30 AM50 °FRain showers. Mostly cloudy.8 mph94%29.42 "Hg3 mi
3:00 AM52 °FSprinkles. Passing clouds.3 mph94%29.42 "HgN/A
Weather by CustomWeather, © 2015

See weather overviewHow to use our weather pages